Tracking 19717 objects as of 24-Jun-2019
HD Live streaming from Space Station
objects crossing your sky now

SL-6 R/B(2)

Track SL-6 R/B(2) now!
10-day predictions


NORAD ID: 12827
Int'l Code: 1981-088F
Perigee: 1,048.3 km
Apogee: 13,362.9 km
Inclination: 63.3 °
Period: 262.4 minutes
Semi major axis: 13576 km
RCS: 6.5355 m2 (large)
Launch date: September 11, 1981
Source: Commonwealth of Independent States (former USSR) (CIS)
Launch site: PLESETSK MISSILE AND SPACE COMPLEX (PKMTR)

Note: This is a ROCKET BODY
aabbcc
Your satellite tracking list
Your tracking list is empty




NASA's NSSDC Master Catalog

Two Line Element Set (TLE):
1 12827U 81088F   19174.34335508 -.00000015 +00000-0 +00000-0 0  9995
2 12827 063.3035 262.6599 4535243 205.4117 287.7052 05.48803467757169
Source of the keplerian elements: AFSPC